873  
ASUS41 KRLX 191210  
RWRRLX  
REGIONAL WEATHER ROUNDUP  
NATIONAL WEATHER SERVICE CHARLESTON WV  
800 AM EDT FRI APR 19 2019  
 
NOTE: "FAIR" INDICATES FEW OR NO CLOUDS BELOW 12,000 FEET WITH NO  
SIGNIFICANT WEATHER AND/OR S TO VISIBILITY
.  
 
WVZ003-191300-  
NORTHERN PANHANDLE OF WEST VIRGINIA  
 
CITY SKY/WX TMP DP RH WIND PRES REMARKS
 
WHEELING CLOUDY 67 53 61 S10 29.55R  

 
 
WVZ009-191300-  
NORTHWEST WEST VIRGINIA  
 
CITY SKY/WX TMP DP RH WIND PRES REMARKS
 
PARKERSBURG PTSUNNY 71 53 52 S9G20 29.58R  

 
 
WVZ006-191300-  
WESTERN WEST VIRGINIA  
 
CITY SKY/WX TMP DP RH WIND PRES REMARKS
 
HUNTINGTON LGT RAIN 65 56 72 S9 29.55R  

 
 
WVZ015-191300-  
WEST CENTRAL WEST VIRGINIA  
 
CITY SKY/WX TMP DP RH WIND PRES REMARKS
 
CHARLESTON LGT RAIN 68 57 68 S10 29.60R  

 
 
WVZ022-031-191300-  
NORTH CENTRAL WEST VIRGINIA  
 
CITY SKY/WX TMP DP RH WIND PRES REMARKS
 
MORGANTOWN LGT RAIN 69 53 56 S12G20 29.61R  
CLARKSBURG CLOUDY 72 52 49 S8 29.60R  
BUCKHANNON CLOUDY 70 50 49 S10G16 29.63R  

 
 
WVZ025-035-042-045-191300-  
SOUTHERN WEST VIRGINIA  
 
CITY SKY/WX TMP DP RH WIND PRES REMARKS
 
BECKLEY LGT RAIN 63 53 70 S12G17 29.69R  
LOGAN LGT RAIN 63 59 88 SE8 29.62S  
PINEVILLE RAIN 61 59 94 MISG 29.71R  
BLUEFIELD LGT RAIN 59 54 83 VRB6G17 29.71R  
LEWISBURG CLOUDY 64 55 74 S10G18 29.74R  

 
 
WVZ047-191300-  
NORTHERN MOUNTAINS OF WEST VIRGINIA  
 
CITY SKY/WX TMP DP RH WIND PRES REMARKS
 
ELKINS CLOUDY 68 50 52 S13G21 29.67R  

 
 
WVZ052-191300-  
EASTERN PANHANDLE OF WEST VIRGINIA  
 
CITY SKY/WX TMP DP RH WIND PRES REMARKS
 
MARTINSBURG FAIR 67 58 72 S13G21 29.70R  
PETERSBURG FAIR 68 55 64 CALM 29.68R  

 
 
SOUTHEAST OHIO/NORTHEAST KENTUCKY  
 
CITY SKY/WX TMP DP RH WIND PRES REMARKS
 
ATHENS CLOUDY 68 54 60 S8 29.54R  
ASHLAND CLOUDY 67 57 70 S7 29.54S  

 
 
 
CLICK HERE TO GO TO PREVIOUS BULLETINS.

The Nexlab WV Page
The Nexlab OH Page
The Nexlab KY Page
The Nexlab VA Page Main Text Page